This is the latest recevied weather packets stored in our database for station/object KC1DMA. If no packets are shown the sender has not sent any weather packets the latest 10 day(s).
| Time | Temp. | Humidity | Pressure | Rain* | Wind** | Luminosity | Snow |
|---|---|---|---|---|---|---|---|
| 1777770282 | 10° C | 58% | 1012.9 hPa | - | - | 0 W/m² | - |
| 1777769070 | 11.67° C | 58% | 1012.4 hPa | - | - | 5 W/m² | - |
| 1777768767 | 11.67° C | 58% | 1012.2 hPa | - | - | 5 W/m² | - |
| 1777768464 | 11.67° C | 58% | 1012.2 hPa | - | - | 5 W/m² | - |
| 1777768161 | 11.67° C | 58% | 1012.4 hPa | - | - | 5 W/m² | - |
| 1777767858 | 11.67° C | 58% | 1012.3 hPa | - | - | 5 W/m² | - |
| 1777767555 | 11.67° C | 58% | 1012.2 hPa | - | - | 5 W/m² | - |
| 1777767251 | 11.67° C | 58% | 1012.1 hPa | - | - | 5 W/m² | - |
| 1777766949 | 11.67° C | 58% | 1011.9 hPa | - | - | 5 W/m² | - |
| 1777766646 | 11.67° C | 58% | 1012.1 hPa | - | - | 5 W/m² | - |
| 1777766343 | 11.67° C | 58% | 1012 hPa | - | - | 5 W/m² | - |
| 1777766040 | 11.67° C | 58% | 1012 hPa | - | - | 5 W/m² | - |
| 1777765737 | 11.67° C | 58% | 1012.1 hPa | - | - | 5 W/m² | - |
| 1777765433 | 11.67° C | 56% | 1012.1 hPa | - | - | 10 W/m² | - |
| 1777765130 | 11.67° C | 56% | 1011.9 hPa | - | - | 10 W/m² | - |
| 1777764826 | 11.67° C | 57% | 1012.1 hPa | - | - | 17 W/m² | - |
| 1777764523 | 12.22° C | 59% | 1012 hPa | - | - | 17 W/m² | - |
| 1777764219 | 12.22° C | 60% | 1012.1 hPa | - | - | 33 W/m² | - |
| 1777763916 | 12.78° C | 63% | 1011.9 hPa | - | - | 29 W/m² | - |
| 1777763614 | 12.22° C | 65% | 1011.8 hPa | - | - | 36 W/m² | - |
| 1777763312 | 12.22° C | 67% | 1011.9 hPa | - | - | 29 W/m² | - |
| 1777763010 | 12.22° C | 67% | 1011.6 hPa | - | - | 30 W/m² | - |
| 1777762707 | 12.22° C | 64% | 1011.8 hPa | - | - | 28 W/m² | - |
| 1777762403 | 12.78° C | 63% | 1011.6 hPa | - | - | 30 W/m² | - |
| 1777762100 | 12.78° C | 64% | 1011.7 hPa | - | - | 50 W/m² | - |
* Rain since midnight (hover to see other rain measurements)
** Current wind speed in m/s (hover to see current wind gust speed)